This is the latest recevied weather packets stored in our database for station/object DM1HF-13. If no packets are shown the sender has not sent any weather packets the latest 1 day(s).
| Time | Temp. | Humidity | Pressure | Rain* | Wind** | Luminosity | Snow |
|---|---|---|---|---|---|---|---|
| 1778069717 | 19.44° C | 60% | 1007 hPa | 0 mm | - | 900 W/m² | - |
| 1778069417 | 20° C | 62% | 1007.1 hPa | 0 mm | - | 317 W/m² | - |
| 1778069117 | 18.89° C | 64% | 1006.9 hPa | 0 mm | - | 238 W/m² | - |
| 1778068817 | 18.89° C | 65% | 1007 hPa | 0 mm | - | 568 W/m² | - |
| 1778068517 | 18.89° C | 64% | 1007.1 hPa | 0 mm | - | 704 W/m² | - |
| 1778068216 | 18.33° C | 64% | 1007.1 hPa | 0 mm | - | 232 W/m² | - |
| 1778067917 | 18.89° C | 64% | 1007 hPa | 0 mm | - | 142 W/m² | - |
| 1778067617 | 18.89° C | 65% | 1007 hPa | 0 mm | - | 730 W/m² | - |
| 1778067317 | 18.89° C | 66% | 1007 hPa | 0 mm | - | 527 W/m² | - |
| 1778067017 | 18.33° C | 67% | 1007.1 hPa | 0 mm | - | 854 W/m² | - |
| 1778066717 | 18.33° C | 68% | 1007.1 hPa | 0 mm | - | 213 W/m² | - |
| 1778066417 | 18.89° C | 65% | 1007 hPa | 0 mm | - | 162 W/m² | - |
| 1778065817 | 18.89° C | 66% | 1007.2 hPa | 0 mm | - | 194 W/m² | - |
| 1778065217 | 18.33° C | 68% | 1007.3 hPa | 0 mm | - | 163 W/m² | - |
| 1778064917 | 18.33° C | 66% | 1007.1 hPa | 0 mm | - | 162 W/m² | - |
| 1778064317 | 18.33° C | 70% | 1007.3 hPa | 0 mm | - | 877 W/m² | - |
| 1778064017 | 17.78° C | 72% | 1007.4 hPa | 0 mm | - | 966 W/m² | - |
| 1778063717 | 17.78° C | 71% | 1007.4 hPa | 0 mm | - | 189 W/m² | - |
| 1778063417 | 17.78° C | 70% | 1007.5 hPa | 0 mm | - | 102 W/m² | - |
| 1778063117 | 17.78° C | 69% | 1007.4 hPa | 0 mm | - | 103 W/m² | - |
| 1778062817 | 17.78° C | 71% | 1007.3 hPa | 0 mm | - | 124 W/m² | - |
| 1778062517 | 17.78° C | 72% | 1007.3 hPa | 0 mm | - | 743 W/m² | - |
| 1778062217 | 17.78° C | 70% | 1007.3 hPa | 0 mm | - | 775 W/m² | - |
| 1778061917 | 18.33° C | 70% | 1007.2 hPa | 0 mm | - | 130 W/m² | - |
| 1778061617 | 17.78° C | 74% | 1007.3 hPa | 0 mm | - | 665 W/m² | - |
* Rain latest hour (hover to see other rain measurements)
** Current wind speed in m/s (hover to see current wind gust speed)